Time,TemperatureF,DewpointF,PressureIn,WindDirection,WindDirectionDegrees,WindSpeedMPH,WindSpeedGustMPH,Humidity,HourlyPrecipIn,Conditions,Clouds,dailyrainin,SolarRadiationWatts/m^2,SoftwareType,DateUTC
2013-06-08 00:01:00,52.7,46.4,30.22,SE,131,0.0,1.0,79,0.00,,,0.00,0,WeatherCatV1.20B467,2013-06-07 23:01:00,
2013-06-08 00:06:00,52.5,46.5,30.22,SSW,198,1.0,3.0,80,0.00,,,0.00,0,WeatherCatV1.20B467,2013-06-07 23:06:00,
2013-06-08 00:11:00,52.3,46.3,30.22,SSE,155,0.0,1.0,80,0.00,,,0.00,0,WeatherCatV1.20B467,2013-06-07 23:11:00,
2013-06-08 00:16:00,52.1,46.4,30.22,ESE,123,5.0,5.0,81,0.00,,,0.00,0,WeatherCatV1.20B467,2013-06-07 23:16:00,
2013-06-08 00:21:00,51.9,46.3,30.22,SSE,149,0.0,3.0,81,0.00,,,0.00,0,WeatherCatV1.20B467,2013-06-07 23:21:00,
2013-06-08 00:26:00,51.7,46.4,30.22,SE,141,0.0,2.0,82,0.00,,,0.00,0,WeatherCatV1.20B467,2013-06-07 23:26:00,
2013-06-08 00:31:00,51.4,46.1,30.22,SE,136,2.0,3.0,82,0.00,,,0.00,0,WeatherCatV1.20B467,2013-06-07 23:31:00,
2013-06-08 00:36:00,51.2,46.2,30.22,SE,133,3.0,5.0,83,0.00,,,0.00,0,WeatherCatV1.20B467,2013-06-07 23:36:00,
2013-06-08 00:41:00,51.0,46.3,30.22,SE,133,1.0,4.0,84,0.00,,,0.00,0,WeatherCatV1.20B467,2013-06-07 23:41:00,
2013-06-08 00:46:00,50.8,46.1,30.22,SE,130,2.0,2.0,84,0.00,,,0.00,0,WeatherCatV1.20B467,2013-06-07 23:46:00,
2013-06-08 00:51:00,50.7,46.4,30.22,SE,144,0.0,1.0,85,0.00,,,0.00,0,WeatherCatV1.20B467,2013-06-07 23:51:00,
2013-06-08 00:56:00,50.5,46.2,30.22,SE,126,1.0,3.0,85,0.00,,,0.00,0,WeatherCatV1.20B467,2013-06-07 23:56:00,
2013-06-08 01:01:00,50.3,46.0,30.22,SE,126,0.0,2.0,85,0.00,,,0.00,0,WeatherCatV1.20B467,2013-06-08 00:01:00,
2013-06-08 01:06:00,50.2,46.2,30.22,SE,139,0.0,1.0,86,0.00,,,0.00,0,WeatherCatV1.20B467,2013-06-08 00:06:00,
2013-06-08 01:11:00,50.0,46.0,30.22,SE,127,0.0,6.0,86,0.00,,,0.00,0,WeatherCatV1.20B467,2013-06-08 00:11:00,
2013-06-08 01:16:00,49.9,45.9,30.22,SE,145,1.0,1.0,86,0.00,,,0.00,0,WeatherCatV1.20B467,2013-06-08 00:16:00,
2013-06-08 01:21:00,49.7,46.0,30.22,SE,134,0.0,0.0,87,0.00,,,0.00,0,WeatherCatV1.20B467,2013-06-08 00:21:00,
2013-06-08 01:26:00,49.6,45.9,30.22,SE,136,0.0,1.0,87,0.00,,,0.00,0,WeatherCatV1.20B467,2013-06-08 00:26:00,
2013-06-08 01:31:00,49.4,45.7,30.22,East,93,2.0,2.0,87,0.00,,,0.00,0,WeatherCatV1.20B467,2013-06-08 00:31:00,
2013-06-08 01:36:00,49.2,45.5,30.22,East,90,0.0,1.0,87,0.00,,,0.00,0,WeatherCatV1.20B467,2013-06-08 00:36:00,
2013-06-08 01:41:00,49.0,45.6,30.22,SE,124,1.0,1.0,88,0.00,,,0.00,0,WeatherCatV1.20B467,2013-06-08 00:41:00,
2013-06-08 01:46:00,48.9,45.5,30.22,SSE,148,0.0,2.0,88,0.00,,,0.00,0,WeatherCatV1.20B467,2013-06-08 00:46:00,
2013-06-08 01:51:00,48.8,45.4,30.22,SSE,148,0.0,1.0,88,0.00,,,0.00,0,WeatherCatV1.20B467,2013-06-08 00:51:00,
2013-06-08 01:56:00,48.6,45.5,30.22,SE,134,0.0,2.0,89,0.00,,,0.00,0,WeatherCatV1.20B467,2013-06-08 00:56:00,
2013-06-08 02:01:00,48.5,45.4,30.22,SE,134,1.0,1.0,89,0.00,,,0.00,0,WeatherCatV1.20B467,2013-06-08 01:01:00,
2013-06-08 02:06:00,48.4,45.3,30.22,SSW,196,1.0,1.0,89,0.00,,,0.00,0,WeatherCatV1.20B467,2013-06-08 01:06:00,
2013-06-08 02:11:00,48.3,45.2,30.21,SE,127,0.0,3.0,89,0.00,,,0.00,0,WeatherCatV1.20B467,2013-06-08 01:11:00,
2013-06-08 02:16:00,48.2,45.1,30.21,SE,136,1.0,1.0,89,0.00,,,0.00,0,WeatherCatV1.20B467,2013-06-08 01:16:00,
2013-06-08 02:21:00,48.2,45.1,30.21,SE,130,2.0,4.0,89,0.00,,,0.00,0,WeatherCatV1.20B467,2013-06-08 01:21:00,
2013-06-08 02:26:00,48.1,45.0,30.21,SE,136,3.0,4.0,89,0.00,,,0.00,0,WeatherCatV1.20B467,2013-06-08 01:26:00,
2013-06-08 02:31:00,47.9,44.8,30.21,SW,225,1.0,4.0,89,0.00,,,0.00,0,WeatherCatV1.20B467,2013-06-08 01:31:00,
2013-06-08 02:37:00,47.8,44.7,30.21,ESE,122,0.0,4.0,89,0.00,,,0.00,0,WeatherCatV1.20B467,2013-06-08 01:37:00,
2013-06-08 02:42:00,47.7,44.6,30.22,NNE,30,0.0,3.0,89,0.00,,,0.00,0,WeatherCatV1.20B467,2013-06-08 01:42:00,
2013-06-08 02:47:00,47.6,44.5,30.21,ESE,123,0.0,1.0,89,0.00,,,0.00,0,WeatherCatV1.20B467,2013-06-08 01:47:00,
2013-06-08 02:52:00,47.6,44.5,30.21,SE,130,0.0,5.0,89,0.00,,,0.00,0,WeatherCatV1.20B467,2013-06-08 01:52:00,
2013-06-08 02:57:00,47.6,44.5,30.21,SE,137,1.0,2.0,89,0.00,,,0.00,0,WeatherCatV1.20B467,2013-06-08 01:57:00,
2013-06-08 03:02:00,47.6,44.8,30.21,SE,142,2.0,3.0,90,0.00,,,0.00,0,WeatherCatV1.20B467,2013-06-08 02:02:00,
2013-06-08 03:07:00,47.6,44.5,30.21,North,11,2.0,4.0,89,0.00,,,0.00,0,WeatherCatV1.20B467,2013-06-08 02:07:00,
2013-06-08 03:12:00,47.6,44.5,30.21,SSE,153,2.0,2.0,89,0.00,,,0.00,0,WeatherCatV1.20B467,2013-06-08 02:12:00,
2013-06-08 03:17:00,47.6,44.8,30.21,ESE,123,2.0,7.0,90,0.00,,,0.00,0,WeatherCatV1.20B467,2013-06-08 02:17:00,
2013-06-08 03:22:00,47.6,44.8,30.21,SSE,165,3.0,3.0,90,0.00,,,0.00,0,WeatherCatV1.20B467,2013-06-08 02:22:00,
2013-06-08 03:27:00,47.6,44.8,30.21,SE,126,4.0,6.0,90,0.00,,,0.00,0,WeatherCatV1.20B467,2013-06-08 02:27:00,
2013-06-08 03:32:00,47.6,44.8,30.21,SSE,147,0.0,7.0,90,0.00,,,0.00,0,WeatherCatV1.20B467,2013-06-08 02:32:00,
2013-06-08 03:37:00,47.7,44.9,30.21,SE,137,0.0,4.0,90,0.00,,,0.00,0,WeatherCatV1.20B467,2013-06-08 02:37:00,
2013-06-08 03:42:00,47.8,45.0,30.21,SSE,155,2.0,5.0,90,0.00,,,0.00,0,WeatherCatV1.20B467,2013-06-08 02:42:00,
2013-06-08 03:47:00,47.8,44.7,30.21,SE,126,3.0,6.0,89,0.00,,,0.00,0,WeatherCatV1.20B467,2013-06-08 02:47:00,
2013-06-08 03:52:00,47.7,44.6,30.21,SE,126,2.0,7.0,89,0.00,,,0.00,0,WeatherCatV1.20B467,2013-06-08 02:52:00,
2013-06-08 03:57:00,47.7,44.6,30.21,SE,130,1.0,4.0,89,0.00,,,0.00,0,WeatherCatV1.20B467,2013-06-08 02:57:00,
2013-06-08 04:02:00,47.6,44.5,30.21,SE,129,0.0,2.0,89,0.00,,,0.00,0,WeatherCatV1.20B467,2013-06-08 03:02:00,
2013-06-08 04:07:00,47.5,44.4,30.21,NNW,338,1.0,1.0,89,0.00,,,0.00,0,WeatherCatV1.20B467,2013-06-08 03:07:00,
2013-06-08 04:12:00,47.4,44.3,30.21,SE,134,1.0,4.0,89,0.00,,,0.00,0,WeatherCatV1.20B467,2013-06-08 03:12:00,
2013-06-08 04:17:00,47.4,44.3,30.21,South,178,0.0,2.0,89,0.00,,,0.00,0,WeatherCatV1.20B467,2013-06-08 03:17:00,
2013-06-08 04:22:00,47.4,44.3,30.21,South,173,0.0,1.0,89,0.00,,,0.00,0,WeatherCatV1.20B467,2013-06-08 03:22:00,
2013-06-08 04:27:00,47.4,44.3,30.21,SE,125,0.0,3.0,89,0.00,,,0.00,0,WeatherCatV1.20B467,2013-06-08 03:27:00,
2013-06-08 04:32:00,47.4,44.3,30.20,SE,138,0.0,1.0,89,0.00,,,0.00,0,WeatherCatV1.20B467,2013-06-08 03:32:00,
2013-06-08 04:37:00,47.4,44.3,30.20,South,186,0.0,4.0,89,0.00,,,0.00,0,WeatherCatV1.20B467,2013-06-08 03:37:00,
2013-06-08 04:42:00,47.3,44.2,30.20,South,177,0.0,2.0,89,0.00,,,0.00,0,WeatherCatV1.20B467,2013-06-08 03:42:00,
2013-06-08 04:47:00,47.3,44.2,30.20,SE,134,0.0,4.0,89,0.00,,,0.00,5,WeatherCatV1.20B467,2013-06-08 03:47:00,
2013-06-08 04:52:00,47.3,44.2,30.20,SSE,150,2.0,4.0,89,0.00,,,0.00,7,WeatherCatV1.20B467,2013-06-08 03:52:00,
2013-06-08 04:57:00,47.3,44.2,30.20,East,101,0.0,4.0,89,0.00,,,0.00,9,WeatherCatV1.20B467,2013-06-08 03:57:00,
2013-06-08 05:01:00,47.3,44.2,30.20,East,101,0.0,0.0,89,0.00,,,0.00,9,WeatherCatV1.20B467,2013-06-08 04:01:00,
2013-06-08 05:06:00,47.4,44.6,30.20,East,101,0.0,1.0,90,0.00,,,0.00,12,WeatherCatV1.20B467,2013-06-08 04:06:00,
2013-06-08 05:11:00,47.4,44.6,30.20,SE,128,0.0,7.0,90,0.00,,,0.00,16,WeatherCatV1.20B467,2013-06-08 04:11:00,
2013-06-08 05:16:00,47.5,44.7,30.20,South,189,0.0,1.0,90,0.00,,,0.00,21,WeatherCatV1.20B467,2013-06-08 04:16:00,
2013-06-08 05:21:00,47.6,44.8,30.20,ESE,123,4.0,5.0,90,0.00,,,0.00,26,WeatherCatV1.20B467,2013-06-08 04:21:00,
2013-06-08 05:26:00,47.7,44.9,30.20,East,100,0.0,1.0,90,0.00,,,0.00,30,WeatherCatV1.20B467,2013-06-08 04:26:00,
2013-06-08 05:31:00,47.7,44.6,30.20,SSW,192,0.0,1.0,89,0.00,,,0.00,44,WeatherCatV1.20B467,2013-06-08 04:31:00,
2013-06-08 05:36:00,47.8,44.7,30.20,WSW,247,0.0,2.0,89,0.00,,,0.00,35,WeatherCatV1.20B467,2013-06-08 04:36:00,
2013-06-08 05:41:00,47.9,44.8,30.20,SSE,159,0.0,3.0,89,0.00,,,0.00,46,WeatherCatV1.20B467,2013-06-08 04:41:00,
2013-06-08 05:46:00,48.0,44.9,30.20,SSE,159,0.0,1.0,89,0.00,,,0.00,49,WeatherCatV1.20B467,2013-06-08 04:46:00,
2013-06-08 05:51:00,48.1,45.0,30.20,ESE,123,0.0,4.0,89,0.00,,,0.00,60,WeatherCatV1.20B467,2013-06-08 04:51:00,
2013-06-08 05:56:00,48.2,45.1,30.20,NNE,17,1.0,3.0,89,0.00,,,0.00,62,WeatherCatV1.20B467,2013-06-08 04:56:00,
2013-06-08 06:01:00,48.3,45.2,30.21,SSE,163,0.0,1.0,89,0.00,,,0.00,67,WeatherCatV1.20B467,2013-06-08 05:01:00,
2013-06-08 06:06:00,48.5,45.4,30.20,South,190,4.0,4.0,89,0.00,,,0.00,76,WeatherCatV1.20B467,2013-06-08 05:06:00,
2013-06-08 06:11:00,48.6,45.2,30.20,SE,138,0.0,2.0,88,0.00,,,0.00,65,WeatherCatV1.20B467,2013-06-08 05:11:00,
2013-06-08 06:16:00,48.7,45.3,30.20,SE,132,1.0,2.0,88,0.00,,,0.00,83,WeatherCatV1.20B467,2013-06-08 05:16:00,
2013-06-08 06:21:00,48.8,45.4,30.20,SE,135,0.0,3.0,88,0.00,,,0.00,84,WeatherCatV1.20B467,2013-06-08 05:21:00,
2013-06-08 06:26:00,48.9,45.5,30.21,SSE,166,1.0,4.0,88,0.00,,,0.00,95,WeatherCatV1.20B467,2013-06-08 05:26:00,
2013-06-08 06:31:00,49.0,45.3,30.21,SE,146,0.0,4.0,87,0.00,,,0.00,91,WeatherCatV1.20B467,2013-06-08 05:31:00,
2013-06-08 06:36:00,49.2,45.5,30.21,SE,139,0.0,2.0,87,0.00,,,0.00,90,WeatherCatV1.20B467,2013-06-08 05:36:00,
2013-06-08 06:38:00,49.2,45.5,30.21,SE,139,0.0,0.0,87,0.00,,,0.00,84,WeatherCatV1.20B467,2013-06-08 05:38:00,
2013-06-08 06:43:00,49.4,45.7,30.21,SE,145,0.0,1.0,87,0.00,,,0.00,95,WeatherCatV1.20B467,2013-06-08 05:43:00,
2013-06-08 06:48:00,49.5,45.8,30.21,SSE,165,0.0,2.0,87,0.00,,,0.00,105,WeatherCatV1.20B467,2013-06-08 05:48:00,
2013-06-08 06:53:00,49.6,45.9,30.21,SE,139,0.0,4.0,87,0.00,,,0.00,132,WeatherCatV1.20B467,2013-06-08 05:53:00,
2013-06-08 06:58:00,49.7,46.0,30.21,East,96,0.0,2.0,87,0.00,,,0.00,123,WeatherCatV1.20B467,2013-06-08 05:58:00,
2013-06-08 07:03:00,49.9,46.2,30.21,South,184,0.0,1.0,87,0.00,,,0.00,130,WeatherCatV1.20B467,2013-06-08 06:03:00,
2013-06-08 07:08:00,50.1,46.1,30.21,SE,137,1.0,5.0,86,0.00,,,0.00,306,WeatherCatV1.20B467,2013-06-08 06:08:00,
2013-06-08 07:13:00,50.5,46.2,30.21,SE,130,0.0,1.0,85,0.00,,,0.00,234,WeatherCatV1.20B467,2013-06-08 06:13:00,
2013-06-08 07:18:00,51.0,46.3,30.21,SW,220,3.0,3.0,84,0.00,,,0.00,329,WeatherCatV1.20B467,2013-06-08 06:18:00,
2013-06-08 07:23:00,50.7,45.7,30.21,SSE,148,0.0,7.0,83,0.00,,,0.00,125,WeatherCatV1.20B467,2013-06-08 06:23:00,
2013-06-08 07:28:00,50.3,45.7,30.21,SE,136,0.0,3.0,84,0.00,,,0.00,142,WeatherCatV1.20B467,2013-06-08 06:28:00,
2013-06-08 07:33:00,50.1,45.5,30.21,ESE,109,1.0,5.0,84,0.00,,,0.00,167,WeatherCatV1.20B467,2013-06-08 06:33:00,
2013-06-08 07:38:00,50.3,45.7,30.21,ESE,119,0.0,3.0,84,0.00,,,0.00,148,WeatherCatV1.20B467,2013-06-08 06:38:00,
2013-06-08 07:43:00,50.4,45.7,30.21,North,0,1.0,4.0,84,0.00,,,0.00,185,WeatherCatV1.20B467,2013-06-08 06:43:00,
2013-06-08 07:48:00,50.9,46.2,30.21,SSE,149,3.0,5.0,84,0.00,,,0.00,424,WeatherCatV1.20B467,2013-06-08 06:48:00,
2013-06-08 07:53:00,51.2,46.2,30.21,SE,139,1.0,2.0,83,0.00,,,0.00,221,WeatherCatV1.20B467,2013-06-08 06:53:00,
2013-06-08 07:58:00,51.3,46.0,30.20,SSW,199,0.0,2.0,82,0.00,,,0.00,179,WeatherCatV1.20B467,2013-06-08 06:58:00,
2013-06-08 08:03:00,51.1,46.1,30.20,SSW,204,1.0,5.0,83,0.00,,,0.00,214,WeatherCatV1.20B467,2013-06-08 07:03:00,
2013-06-08 08:08:00,51.2,46.2,30.20,SSW,194,2.0,5.0,83,0.00,,,0.00,227,WeatherCatV1.20B467,2013-06-08 07:08:00,
2013-06-08 08:13:00,51.3,46.3,30.21,SE,130,6.0,6.0,83,0.00,,,0.00,209,WeatherCatV1.20B467,2013-06-08 07:13:00,
2013-06-08 08:18:00,51.5,46.5,30.20,ESE,119,0.0,5.0,83,0.00,,,0.00,211,WeatherCatV1.20B467,2013-06-08 07:18:00,
2013-06-08 08:23:00,51.6,46.3,30.20,ESE,117,1.0,4.0,82,0.00,,,0.00,169,WeatherCatV1.20B467,2013-06-08 07:23:00,
2013-06-08 08:28:00,51.8,46.5,30.20,SE,125,0.0,4.0,82,0.00,,,0.00,183,WeatherCatV1.20B467,2013-06-08 07:28:00,
2013-06-08 08:33:00,52.3,46.6,30.20,SSE,159,2.0,6.0,81,0.00,,,0.00,645,WeatherCatV1.20B467,2013-06-08 07:33:00,
2013-06-08 08:38:00,53.2,47.2,30.20,SSE,158,0.0,5.0,80,0.00,,,0.00,664,WeatherCatV1.20B467,2013-06-08 07:38:00,
2013-06-08 08:43:00,54.1,47.4,30.20,South,169,1.0,2.0,78,0.00,,,0.00,661,WeatherCatV1.20B467,2013-06-08 07:43:00,
2013-06-08 08:48:00,54.9,47.8,30.20,SE,128,4.0,7.0,77,0.00,,,0.00,693,WeatherCatV1.20B467,2013-06-08 07:48:00,
2013-06-08 08:53:00,55.4,47.6,30.20,SSE,159,1.0,1.0,75,0.00,,,0.00,633,WeatherCatV1.20B467,2013-06-08 07:53:00,
2013-06-08 08:58:00,55.7,47.9,30.20,NNW,340,0.0,1.0,75,0.00,,,0.00,306,WeatherCatV1.20B467,2013-06-08 07:58:00,
2013-06-08 09:03:00,55.3,47.5,30.20,SE,140,0.0,1.0,75,0.00,,,0.00,737,WeatherCatV1.20B467,2013-06-08 08:03:00,
2013-06-08 09:08:00,55.2,47.4,30.20,South,183,0.0,6.0,75,0.00,,,0.00,429,WeatherCatV1.20B467,2013-06-08 08:08:00,
2013-06-08 09:13:00,55.1,47.3,30.20,SE,130,1.0,3.0,75,0.00,,,0.00,846,WeatherCatV1.20B467,2013-06-08 08:13:00,
2013-06-08 09:18:00,55.7,47.9,30.20,SE,144,1.0,3.0,75,0.00,,,0.00,824,WeatherCatV1.20B467,2013-06-08 08:18:00,
2013-06-08 09:23:00,56.2,48.0,30.20,SE,141,2.0,3.0,74,0.00,,,0.00,742,WeatherCatV1.20B467,2013-06-08 08:23:00,
2013-06-08 09:28:00,56.8,48.2,30.20,SSE,164,0.0,3.0,73,0.00,,,0.00,763,WeatherCatV1.20B467,2013-06-08 08:28:00,
2013-06-08 09:33:00,57.0,47.7,30.20,SE,126,4.0,7.0,71,0.00,,,0.00,476,WeatherCatV1.20B467,2013-06-08 08:33:00,
2013-06-08 09:38:00,56.8,47.9,30.20,SSE,163,0.0,2.0,72,0.00,,,0.00,476,WeatherCatV1.20B467,2013-06-08 08:38:00,
2013-06-08 09:43:00,57.1,48.2,30.20,SSW,202,0.0,3.0,72,0.00,,,0.00,476,WeatherCatV1.20B467,2013-06-08 08:43:00,
2013-06-08 09:48:00,56.8,47.9,30.20,SSW,199,1.0,3.0,72,0.00,,,0.00,322,WeatherCatV1.20B467,2013-06-08 08:48:00,
2013-06-08 09:53:00,56.1,47.6,30.19,SE,132,2.0,3.0,73,0.00,,,0.00,343,WeatherCatV1.20B467,2013-06-08 08:53:00,
2013-06-08 09:58:00,56.0,47.5,30.19,SE,125,2.0,3.0,73,0.00,,,0.00,380,WeatherCatV1.20B467,2013-06-08 08:58:00,
2013-06-08 10:03:00,55.8,47.3,30.19,ESE,113,2.0,5.0,73,0.00,,,0.00,315,WeatherCatV1.20B467,2013-06-08 09:03:00,
2013-06-08 10:08:00,55.5,47.0,30.19,East,79,0.0,3.0,73,0.00,,,0.00,257,WeatherCatV1.20B467,2013-06-08 09:08:00,
2013-06-08 10:13:00,56.1,47.6,30.18,SE,136,2.0,3.0,73,0.00,,,0.00,789,WeatherCatV1.20B467,2013-06-08 09:13:00,
2013-06-08 10:18:00,56.9,47.2,30.19,SE,146,2.0,7.0,70,0.00,,,0.00,849,WeatherCatV1.20B467,2013-06-08 09:18:00,
2013-06-08 10:23:00,57.5,47.4,30.18,SE,130,5.0,5.0,69,0.00,,,0.00,990,WeatherCatV1.20B467,2013-06-08 09:23:00,
2013-06-08 10:28:00,57.8,47.7,30.18,East,89,0.0,2.0,69,0.00,,,0.00,380,WeatherCatV1.20B467,2013-06-08 09:28:00,
2013-06-08 10:33:00,57.5,47.4,30.18,NW,309,1.0,3.0,69,0.00,,,0.00,309,WeatherCatV1.20B467,2013-06-08 09:33:00,
2013-06-08 10:38:00,56.6,46.9,30.18,South,173,1.0,1.0,70,0.00,,,0.00,320,WeatherCatV1.20B467,2013-06-08 09:38:00,
2013-06-08 10:43:00,56.1,46.8,30.17,SE,146,0.0,2.0,71,0.00,,,0.00,292,WeatherCatV1.20B467,2013-06-08 09:43:00,
2013-06-08 10:48:00,56.1,46.8,30.17,SE,128,1.0,2.0,71,0.00,,,0.00,283,WeatherCatV1.20B467,2013-06-08 09:48:00,
2013-06-08 10:53:00,56.1,46.8,30.18,SE,132,2.0,6.0,71,0.00,,,0.00,320,WeatherCatV1.20B467,2013-06-08 09:53:00,
2013-06-08 10:58:00,56.1,46.8,30.17,SSW,210,1.0,6.0,71,0.00,,,0.00,322,WeatherCatV1.20B467,2013-06-08 09:58:00,
2013-06-08 11:03:00,56.5,47.2,30.17,South,175,0.0,3.0,71,0.00,,,0.00,329,WeatherCatV1.20B467,2013-06-08 10:03:00,
2013-06-08 11:08:00,56.9,47.2,30.17,ESE,112,1.0,2.0,70,0.00,,,0.00,420,WeatherCatV1.20B467,2013-06-08 10:08:00,
2013-06-08 11:13:00,57.0,47.7,30.17,WNW,296,0.0,2.0,71,0.00,,,0.00,431,WeatherCatV1.20B467,2013-06-08 10:13:00,
2013-06-08 11:18:00,57.0,47.7,30.17,SSE,148,1.0,3.0,71,0.00,,,0.00,450,WeatherCatV1.20B467,2013-06-08 10:18:00,
2013-06-08 11:23:00,56.8,47.1,30.17,ESE,121,2.0,5.0,70,0.00,,,0.00,490,WeatherCatV1.20B467,2013-06-08 10:23:00,
2013-06-08 11:28:00,56.7,47.8,30.17,South,170,1.0,3.0,72,0.00,,,0.00,399,WeatherCatV1.20B467,2013-06-08 10:28:00,
2013-06-08 11:33:00,57.0,47.3,30.17,North,5,3.0,4.0,70,0.00,,,0.00,585,WeatherCatV1.20B467,2013-06-08 10:33:00,
2013-06-08 11:38:00,57.5,47.4,30.17,NW,308,0.0,5.0,69,0.00,,,0.00,1000,WeatherCatV1.20B467,2013-06-08 10:38:00,
2013-06-08 11:43:00,59.0,47.7,30.17,South,169,1.0,7.0,66,0.00,,,0.00,1266,WeatherCatV1.20B467,2013-06-08 10:43:00,
2013-06-08 11:48:00,58.9,48.0,30.17,NNW,336,1.0,3.0,67,0.00,,,0.00,1266,WeatherCatV1.20B467,2013-06-08 10:48:00,
2013-06-08 11:53:00,59.6,47.4,30.17,ESE,123,3.0,3.0,64,0.00,,,0.00,452,WeatherCatV1.20B467,2013-06-08 10:53:00,
2013-06-08 11:58:00,58.6,47.3,30.17,SE,140,1.0,3.0,66,0.00,,,0.00,355,WeatherCatV1.20B467,2013-06-08 10:58:00,
2013-06-08 12:03:00,58.7,47.0,30.17,SW,236,1.0,4.0,65,0.00,,,0.00,1013,WeatherCatV1.20B467,2013-06-08 11:03:00,
2013-06-08 12:08:00,58.7,47.0,30.16,SSE,164,0.0,3.0,65,0.00,,,0.00,306,WeatherCatV1.20B467,2013-06-08 11:08:00,
2013-06-08 12:13:00,58.5,46.4,30.16,NW,306,3.0,3.0,64,0.00,,,0.00,411,WeatherCatV1.20B467,2013-06-08 11:13:00,
2013-06-08 12:18:00,58.5,47.2,30.16,NW,305,0.0,3.0,66,0.00,,,0.00,431,WeatherCatV1.20B467,2013-06-08 11:18:00,
2013-06-08 12:23:00,59.6,47.8,30.16,SE,138,2.0,3.0,65,0.00,,,0.00,1020,WeatherCatV1.20B467,2013-06-08 11:23:00,
2013-06-08 12:28:00,60.8,47.3,30.16,SE,144,2.0,5.0,61,0.00,,,0.00,1132,WeatherCatV1.20B467,2013-06-08 11:28:00,
2013-06-08 12:33:00,60.4,47.3,30.16,WNW,286,2.0,2.0,62,0.00,,,0.00,404,WeatherCatV1.20B467,2013-06-08 11:33:00,
2013-06-08 12:38:00,60.2,48.0,30.16,ESE,121,0.0,3.0,64,0.00,,,0.00,468,WeatherCatV1.20B467,2013-06-08 11:38:00,
2013-06-08 12:43:00,60.4,48.2,30.15,SE,142,2.0,2.0,64,0.00,,,0.00,464,WeatherCatV1.20B467,2013-06-08 11:43:00,
2013-06-08 12:48:00,61.5,48.4,30.15,South,174,1.0,5.0,62,0.00,,,0.00,439,WeatherCatV1.20B467,2013-06-08 11:48:00,
2013-06-08 12:53:00,60.7,48.0,30.15,WSW,254,1.0,6.0,63,0.00,,,0.00,482,WeatherCatV1.20B467,2013-06-08 11:53:00,
2013-06-08 12:58:00,60.2,47.6,30.15,ESE,119,0.0,3.0,63,0.00,,,0.00,341,WeatherCatV1.20B467,2013-06-08 11:58:00,
2013-06-08 13:03:00,60.4,48.2,30.15,ENE,78,3.0,4.0,64,0.00,,,0.00,1144,WeatherCatV1.20B467,2013-06-08 12:03:00,
2013-06-08 13:08:00,60.2,47.6,30.15,SE,138,2.0,4.0,63,0.00,,,0.00,376,WeatherCatV1.20B467,2013-06-08 12:08:00,
2013-06-08 13:13:00,60.6,47.9,30.15,East,85,0.0,1.0,63,0.00,,,0.00,452,WeatherCatV1.20B467,2013-06-08 12:13:00,
2013-06-08 13:18:00,60.4,47.7,30.15,SE,132,2.0,5.0,63,0.00,,,0.00,1102,WeatherCatV1.20B467,2013-06-08 12:18:00,
2013-06-08 13:23:00,61.1,48.0,30.15,ESE,113,1.0,3.0,62,0.00,,,0.00,438,WeatherCatV1.20B467,2013-06-08 12:23:00,
2013-06-08 13:28:00,61.0,48.3,30.15,NNE,15,0.0,4.0,63,0.00,,,0.00,1009,WeatherCatV1.20B467,2013-06-08 12:28:00,
2013-06-08 13:33:00,61.2,48.1,30.15,WSW,246,1.0,2.0,62,0.00,,,0.00,793,WeatherCatV1.20B467,2013-06-08 12:33:00,
2013-06-08 13:38:00,61.2,48.1,30.15,SSW,194,1.0,3.0,62,0.00,,,0.00,568,WeatherCatV1.20B467,2013-06-08 12:38:00,
2013-06-08 13:43:00,60.7,46.7,30.15,SSW,198,1.0,2.0,60,0.00,,,0.00,427,WeatherCatV1.20B467,2013-06-08 12:43:00,
2013-06-08 13:48:00,61.1,48.0,30.15,SSW,205,0.0,4.0,62,0.00,,,0.00,1090,WeatherCatV1.20B467,2013-06-08 12:48:00,
2013-06-08 13:53:00,61.1,47.1,30.14,South,175,1.0,3.0,60,0.00,,,0.00,436,WeatherCatV1.20B467,2013-06-08 12:53:00,
2013-06-08 13:58:00,61.0,47.5,30.14,SE,134,2.0,7.0,61,0.00,,,0.00,475,WeatherCatV1.20B467,2013-06-08 12:58:00,
2013-06-08 14:03:00,62.1,47.6,30.14,ESE,115,0.0,2.0,59,0.00,,,0.00,977,WeatherCatV1.20B467,2013-06-08 13:03:00,
2013-06-08 14:08:00,61.8,46.9,30.14,SSE,152,0.0,5.0,58,0.00,,,0.00,967,WeatherCatV1.20B467,2013-06-08 13:08:00,
2013-06-08 14:13:00,62.1,48.0,30.14,South,182,1.0,3.0,60,0.00,,,0.00,1004,WeatherCatV1.20B467,2013-06-08 13:13:00,
2013-06-08 14:18:00,62.0,47.5,30.14,SE,142,2.0,2.0,59,0.00,,,0.00,1136,WeatherCatV1.20B467,2013-06-08 13:18:00,
2013-06-08 14:23:00,62.2,46.8,30.14,South,170,0.0,1.0,57,0.00,,,0.00,970,WeatherCatV1.20B467,2013-06-08 13:23:00,
2013-06-08 14:28:00,63.0,48.0,30.14,SSW,196,3.0,3.0,58,0.00,,,0.00,1018,WeatherCatV1.20B467,2013-06-08 13:28:00,
2013-06-08 14:33:00,62.5,47.5,30.14,SE,138,2.0,3.0,58,0.00,,,0.00,343,WeatherCatV1.20B467,2013-06-08 13:33:00,
2013-06-08 14:38:00,61.6,47.6,30.14,SSE,151,3.0,6.0,60,0.00,,,0.00,956,WeatherCatV1.20B467,2013-06-08 13:38:00,
2013-06-08 14:43:00,62.9,47.4,30.13,ESE,116,2.0,8.0,57,0.00,,,0.00,921,WeatherCatV1.20B467,2013-06-08 13:43:00,
2013-06-08 14:48:00,62.7,46.8,30.13,SSE,150,3.0,3.0,56,0.00,,,0.00,429,WeatherCatV1.20B467,2013-06-08 13:48:00,
2013-06-08 14:53:00,62.7,47.2,30.13,SE,130,1.0,5.0,57,0.00,,,0.00,958,WeatherCatV1.20B467,2013-06-08 13:53:00,
2013-06-08 14:58:00,62.3,46.4,30.13,SE,140,2.0,8.0,56,0.00,,,0.00,461,WeatherCatV1.20B467,2013-06-08 13:58:00,
2013-06-08 15:03:00,61.5,46.6,30.13,ESE,123,4.0,5.0,58,0.00,,,0.00,241,WeatherCatV1.20B467,2013-06-08 14:03:00,
2013-06-08 15:08:00,62.3,47.3,30.13,South,174,1.0,15.0,58,0.00,,,0.00,844,WeatherCatV1.20B467,2013-06-08 14:08:00,
2013-06-08 15:13:00,62.3,46.4,30.12,SE,132,1.0,5.0,56,0.00,,,0.00,770,WeatherCatV1.20B467,2013-06-08 14:13:00,
2013-06-08 15:18:00,63.8,48.3,30.12,SE,126,6.0,7.0,57,0.00,,,0.00,439,WeatherCatV1.20B467,2013-06-08 14:18:00,
2013-06-08 15:23:00,63.2,46.8,30.12,SSE,159,2.0,5.0,55,0.00,,,0.00,439,WeatherCatV1.20B467,2013-06-08 14:23:00,
2013-06-08 15:28:00,61.6,46.7,30.12,SE,140,1.0,4.0,58,0.00,,,0.00,823,WeatherCatV1.20B467,2013-06-08 14:28:00,
2013-06-08 15:33:00,62.0,47.0,30.12,SE,133,0.0,4.0,58,0.00,,,0.00,809,WeatherCatV1.20B467,2013-06-08 14:33:00,
2013-06-08 15:38:00,63.2,47.7,30.12,SSE,161,0.0,4.0,57,0.00,,,0.00,809,WeatherCatV1.20B467,2013-06-08 14:38:00,
2013-06-08 15:43:00,62.5,46.6,30.12,SSE,163,0.0,4.0,56,0.00,,,0.00,216,WeatherCatV1.20B467,2013-06-08 14:43:00,
2013-06-08 15:48:00,61.8,47.8,30.12,SE,143,2.0,3.0,60,0.00,,,0.00,322,WeatherCatV1.20B467,2013-06-08 14:48:00,
2013-06-08 15:53:00,61.3,47.3,30.12,SE,135,2.0,6.0,60,0.00,,,0.00,765,WeatherCatV1.20B467,2013-06-08 14:53:00,
2013-06-08 15:58:00,62.7,48.2,30.11,NW,305,0.0,1.0,59,0.00,,,0.00,747,WeatherCatV1.20B467,2013-06-08 14:58:00,
2013-06-08 16:03:00,63.1,48.5,30.11,SE,131,4.0,9.0,59,0.00,,,0.00,686,WeatherCatV1.20B467,2013-06-08 15:03:00,
2013-06-08 16:08:00,62.1,47.1,30.11,East,88,3.0,7.0,58,0.00,,,0.00,717,WeatherCatV1.20B467,2013-06-08 15:08:00,
2013-06-08 16:13:00,61.7,46.8,30.11,ESE,119,2.0,5.0,58,0.00,,,0.00,721,WeatherCatV1.20B467,2013-06-08 15:13:00,
2013-06-08 16:18:00,61.2,47.2,30.11,NNW,332,1.0,3.0,60,0.00,,,0.00,728,WeatherCatV1.20B467,2013-06-08 15:18:00,
2013-06-08 16:23:00,61.5,47.0,30.11,South,178,1.0,4.0,59,0.00,,,0.00,680,WeatherCatV1.20B467,2013-06-08 15:23:00,
2013-06-08 16:28:00,61.5,47.5,30.10,SE,140,0.0,9.0,60,0.00,,,0.00,387,WeatherCatV1.20B467,2013-06-08 15:28:00,
2013-06-08 16:33:00,61.6,47.6,30.10,West,268,1.0,4.0,60,0.00,,,0.00,675,WeatherCatV1.20B467,2013-06-08 15:33:00,
2013-06-08 16:38:00,61.6,47.1,30.10,SE,124,6.0,8.0,59,0.00,,,0.00,640,WeatherCatV1.20B467,2013-06-08 15:38:00,
2013-06-08 16:43:00,61.8,47.3,30.10,SE,130,1.0,5.0,59,0.00,,,0.00,622,WeatherCatV1.20B467,2013-06-08 15:43:00,
2013-06-08 16:48:00,61.7,47.7,30.10,SE,146,1.0,3.0,60,0.00,,,0.00,642,WeatherCatV1.20B467,2013-06-08 15:48:00,
2013-06-08 16:53:00,61.6,47.1,30.10,SE,134,2.0,5.0,59,0.00,,,0.00,601,WeatherCatV1.20B467,2013-06-08 15:53:00,
2013-06-08 16:58:00,62.6,47.6,30.09,SSE,150,1.0,5.0,58,0.00,,,0.00,591,WeatherCatV1.20B467,2013-06-08 15:58:00,
2013-06-08 17:03:00,63.0,48.0,30.09,ESE,121,0.0,2.0,58,0.00,,,0.00,591,WeatherCatV1.20B467,2013-06-08 16:03:00,
2013-06-08 17:08:00,63.8,48.7,30.09,East,88,6.0,17.0,58,0.00,,,0.00,619,WeatherCatV1.20B467,2013-06-08 16:08:00,
2013-06-08 17:13:00,62.2,48.1,30.09,SSE,161,2.0,9.0,60,0.00,,,0.00,571,WeatherCatV1.20B467,2013-06-08 16:13:00,
2013-06-08 17:18:00,61.8,47.3,30.09,SE,127,2.0,5.0,59,0.00,,,0.00,547,WeatherCatV1.20B467,2013-06-08 16:18:00,
2013-06-08 17:23:00,61.8,48.2,30.09,SE,136,0.0,3.0,61,0.00,,,0.00,529,WeatherCatV1.20B467,2013-06-08 16:23:00,
2013-06-08 17:28:00,62.6,48.1,30.08,South,178,0.0,2.0,59,0.00,,,0.00,534,WeatherCatV1.20B467,2013-06-08 16:28:00,
2013-06-08 17:33:00,62.3,48.2,30.08,SE,146,2.0,5.0,60,0.00,,,0.00,501,WeatherCatV1.20B467,2013-06-08 16:33:00,
2013-06-08 17:38:00,63.2,48.6,30.08,SSW,200,1.0,2.0,59,0.00,,,0.00,510,WeatherCatV1.20B467,2013-06-08 16:38:00,
2013-06-08 17:43:00,63.9,48.8,30.08,SE,130,2.0,6.0,58,0.00,,,0.00,489,WeatherCatV1.20B467,2013-06-08 16:43:00,
2013-06-08 17:48:00,61.6,48.0,30.08,ESE,113,2.0,5.0,61,0.00,,,0.00,492,WeatherCatV1.20B467,2013-06-08 16:48:00,
2013-06-08 17:53:00,62.0,48.4,30.08,SE,126,1.0,2.0,61,0.00,,,0.00,445,WeatherCatV1.20B467,2013-06-08 16:53:00,
2013-06-08 17:58:00,61.4,47.8,30.08,East,89,0.0,1.0,61,0.00,,,0.00,454,WeatherCatV1.20B467,2013-06-08 16:58:00,
2013-06-08 18:03:00,61.3,48.2,30.08,SE,136,1.0,3.0,62,0.00,,,0.00,373,WeatherCatV1.20B467,2013-06-08 17:03:00,
2013-06-08 18:08:00,61.2,48.1,30.08,ESE,105,1.0,2.0,62,0.00,,,0.00,482,WeatherCatV1.20B467,2013-06-08 17:08:00,
2013-06-08 18:13:00,61.1,48.4,30.08,SE,124,0.0,5.0,63,0.00,,,0.00,483,WeatherCatV1.20B467,2013-06-08 17:13:00,
2013-06-08 18:18:00,60.3,47.6,30.08,SSE,161,2.0,5.0,63,0.00,,,0.00,160,WeatherCatV1.20B467,2013-06-08 17:18:00,
2013-06-08 18:23:00,60.8,48.1,30.08,SW,221,1.0,2.0,63,0.00,,,0.00,434,WeatherCatV1.20B467,2013-06-08 17:23:00,
2013-06-08 18:28:00,60.7,48.0,30.08,SE,139,5.0,9.0,63,0.00,,,0.00,415,WeatherCatV1.20B467,2013-06-08 17:28:00,
2013-06-08 18:33:00,59.9,47.7,30.08,ESE,109,0.0,5.0,64,0.00,,,0.00,86,WeatherCatV1.20B467,2013-06-08 17:33:00,
2013-06-08 18:38:00,59.4,47.6,30.08,NE,50,2.0,4.0,65,0.00,,,0.00,148,WeatherCatV1.20B467,2013-06-08 17:38:00,
2013-06-08 18:43:00,59.1,47.3,30.08,SSE,150,0.0,8.0,65,0.00,,,0.00,107,WeatherCatV1.20B467,2013-06-08 17:43:00,
2013-06-08 18:48:00,58.9,47.6,30.08,SE,132,0.0,5.0,66,0.00,,,0.00,141,WeatherCatV1.20B467,2013-06-08 17:48:00,
2013-06-08 18:53:00,58.9,47.6,30.08,SE,135,0.0,2.0,66,0.00,,,0.00,359,WeatherCatV1.20B467,2013-06-08 17:53:00,
2013-06-08 18:58:00,58.7,47.4,30.08,ESE,112,0.0,3.0,66,0.00,,,0.00,132,WeatherCatV1.20B467,2013-06-08 17:58:00,
2013-06-08 19:03:00,58.2,46.9,30.08,South,186,0.0,2.0,66,0.00,,,0.00,167,WeatherCatV1.20B467,2013-06-08 18:03:00,
2013-06-08 19:08:00,57.9,47.0,30.08,South,183,1.0,4.0,67,0.00,,,0.00,151,WeatherCatV1.20B467,2013-06-08 18:08:00,
2013-06-08 19:13:00,57.7,47.2,30.09,SSE,154,0.0,2.0,68,0.00,,,0.00,111,WeatherCatV1.20B467,2013-06-08 18:13:00,
2013-06-08 19:18:00,57.5,47.4,30.09,ENE,66,2.0,6.0,69,0.00,,,0.00,97,WeatherCatV1.20B467,2013-06-08 18:18:00,
2013-06-08 19:23:00,57.5,47.0,30.08,ESE,107,1.0,7.0,68,0.00,,,0.00,142,WeatherCatV1.20B467,2013-06-08 18:23:00,
2013-06-08 19:28:00,57.4,47.3,30.09,SE,141,0.0,1.0,69,0.00,,,0.00,81,WeatherCatV1.20B467,2013-06-08 18:28:00,
2013-06-08 19:33:00,57.4,46.9,30.09,SE,136,4.0,7.0,68,0.00,,,0.00,69,WeatherCatV1.20B467,2013-06-08 18:33:00,
2013-06-08 19:38:00,57.1,46.6,30.09,SSE,163,1.0,3.0,68,0.00,,,0.00,60,WeatherCatV1.20B467,2013-06-08 18:38:00,
2013-06-08 19:43:00,56.6,46.5,30.09,NNE,24,1.0,4.0,69,0.00,,,0.00,70,WeatherCatV1.20B467,2013-06-08 18:43:00,
2013-06-08 19:48:00,56.4,46.7,30.09,South,173,1.0,4.0,70,0.00,,,0.00,70,WeatherCatV1.20B467,2013-06-08 18:48:00,
2013-06-08 19:53:00,56.2,46.9,30.09,SE,136,2.0,2.0,71,0.00,,,0.00,54,WeatherCatV1.20B467,2013-06-08 18:53:00,
2013-06-08 19:58:00,56.2,46.5,30.09,SE,136,3.0,4.0,70,0.00,,,0.00,40,WeatherCatV1.20B467,2013-06-08 18:58:00,
2013-06-08 20:03:00,56.0,46.4,30.09,SSE,168,0.0,3.0,70,0.00,,,0.00,35,WeatherCatV1.20B467,2013-06-08 19:03:00,
2013-06-08 20:08:00,55.8,46.5,30.09,ESE,106,0.0,6.0,71,0.00,,,0.00,30,WeatherCatV1.20B467,2013-06-08 19:08:00,
2013-06-08 20:13:00,55.7,46.4,30.09,South,190,1.0,7.0,71,0.00,,,0.00,26,WeatherCatV1.20B467,2013-06-08 19:13:00,
2013-06-08 20:18:00,55.5,46.2,30.09,SE,144,7.0,7.0,71,0.00,,,0.00,26,WeatherCatV1.20B467,2013-06-08 19:18:00,
2013-06-08 20:23:00,55.5,46.6,30.09,SE,143,1.0,4.0,72,0.00,,,0.00,19,WeatherCatV1.20B467,2013-06-08 19:23:00,
2013-06-08 20:28:00,55.3,46.8,30.09,ESE,118,0.0,5.0,73,0.00,,,0.00,19,WeatherCatV1.20B467,2013-06-08 19:28:00,
2013-06-08 20:33:00,55.0,46.5,30.09,ESE,115,1.0,3.0,73,0.00,,,0.00,19,WeatherCatV1.20B467,2013-06-08 19:33:00,
2013-06-08 20:38:00,54.8,46.3,30.09,South,170,1.0,2.0,73,0.00,,,0.00,18,WeatherCatV1.20B467,2013-06-08 19:38:00,
2013-06-08 20:43:00,54.8,46.3,30.09,SE,143,0.0,2.0,73,0.00,,,0.00,12,WeatherCatV1.20B467,2013-06-08 19:43:00,
2013-06-08 20:48:00,54.8,46.3,30.09,SE,138,1.0,1.0,73,0.00,,,0.00,9,WeatherCatV1.20B467,2013-06-08 19:48:00,
2013-06-08 20:53:00,54.7,46.6,30.09,SE,143,0.0,4.0,74,0.00,,,0.00,5,WeatherCatV1.20B467,2013-06-08 19:53:00,
2013-06-08 20:58:00,54.7,46.6,30.09,South,177,0.0,2.0,74,0.00,,,0.00,5,WeatherCatV1.20B467,2013-06-08 19:58:00,
2013-06-08 21:03:00,54.6,46.8,30.09,SE,146,1.0,2.0,75,0.00,,,0.00,0,WeatherCatV1.20B467,2013-06-08 20:03:00,
2013-06-08 21:08:00,54.4,47.0,30.09,East,86,0.0,3.0,76,0.00,,,0.00,0,WeatherCatV1.20B467,2013-06-08 20:08:00,
2013-06-08 21:13:00,54.2,47.1,30.09,South,175,0.0,2.0,77,0.00,,,0.00,0,WeatherCatV1.20B467,2013-06-08 20:13:00,
2013-06-08 21:18:00,54.0,47.0,30.09,ESE,106,2.0,2.0,77,0.00,,,0.00,0,WeatherCatV1.20B467,2013-06-08 20:18:00,
2013-06-08 21:23:00,53.9,46.9,30.09,SE,131,1.0,4.0,77,0.00,,,0.00,0,WeatherCatV1.20B467,2013-06-08 20:23:00,
2013-06-08 21:28:00,53.6,46.2,30.09,SSE,150,0.0,1.0,76,0.00,,,0.00,0,WeatherCatV1.20B467,2013-06-08 20:28:00,
2013-06-08 21:33:00,53.3,45.9,30.09,North,0,0.0,5.0,76,0.00,,,0.00,0,WeatherCatV1.20B467,2013-06-08 20:33:00,
2013-06-08 21:38:00,53.3,45.9,30.09,SSE,161,0.0,3.0,76,0.00,,,0.00,0,WeatherCatV1.20B467,2013-06-08 20:38:00,
2013-06-08 21:43:00,53.4,46.0,30.09,SW,225,0.0,3.0,76,0.00,,,0.00,0,WeatherCatV1.20B467,2013-06-08 20:43:00,
2013-06-08 21:48:00,53.3,46.3,30.09,ESE,123,3.0,7.0,77,0.00,,,0.00,0,WeatherCatV1.20B467,2013-06-08 20:48:00,
2013-06-08 21:53:00,53.3,46.3,30.08,SE,126,1.0,3.0,77,0.00,,,0.00,0,WeatherCatV1.20B467,2013-06-08 20:53:00,
2013-06-08 21:58:00,53.2,46.5,30.08,SW,223,0.0,2.0,78,0.00,,,0.00,0,WeatherCatV1.20B467,2013-06-08 20:58:00,
2013-06-08 22:03:00,53.2,46.5,30.09,SSE,153,0.0,2.0,78,0.00,,,0.00,0,WeatherCatV1.20B467,2013-06-08 21:03:00,
2013-06-08 22:08:00,53.1,46.4,30.09,South,190,1.0,5.0,78,0.00,,,0.00,0,WeatherCatV1.20B467,2013-06-08 21:08:00,
2013-06-08 22:13:00,53.1,46.4,30.09,SE,142,0.0,2.0,78,0.00,,,0.00,0,WeatherCatV1.20B467,2013-06-08 21:13:00,
2013-06-08 22:18:00,53.1,46.4,30.09,SSW,197,1.0,5.0,78,0.00,,,0.00,0,WeatherCatV1.20B467,2013-06-08 21:18:00,
2013-06-08 22:23:00,53.0,46.7,30.09,NW,322,0.0,3.0,79,0.00,,,0.00,0,WeatherCatV1.20B467,2013-06-08 21:23:00,
2013-06-08 22:28:00,53.0,46.7,30.09,SSW,192,0.0,3.0,79,0.00,,,0.00,0,WeatherCatV1.20B467,2013-06-08 21:28:00,
2013-06-08 22:33:00,52.9,46.6,30.09,SE,126,2.0,2.0,79,0.00,,,0.00,0,WeatherCatV1.20B467,2013-06-08 21:33:00,
2013-06-08 22:38:00,53.0,46.7,30.09,SE,136,3.0,3.0,79,0.00,,,0.00,0,WeatherCatV1.20B467,2013-06-08 21:38:00,
2013-06-08 22:43:00,52.9,46.6,30.09,ESE,116,7.0,8.0,79,0.00,,,0.00,0,WeatherCatV1.20B467,2013-06-08 21:43:00,
2013-06-08 22:48:00,52.8,46.5,30.09,SE,134,2.0,3.0,79,0.00,,,0.00,0,WeatherCatV1.20B467,2013-06-08 21:48:00,
2013-06-08 22:53:00,52.7,46.7,30.09,SSE,155,1.0,2.0,80,0.00,,,0.00,0,WeatherCatV1.20B467,2013-06-08 21:53:00,
2013-06-08 22:58:00,52.7,46.7,30.09,SE,132,0.0,4.0,80,0.00,,,0.00,0,WeatherCatV1.20B467,2013-06-08 21:58:00,
2013-06-08 23:03:00,52.6,46.6,30.09,SE,124,1.0,1.0,80,0.00,,,0.00,0,WeatherCatV1.20B467,2013-06-08 22:03:00,
2013-06-08 23:08:00,52.6,46.9,30.09,SE,134,1.0,2.0,81,0.00,,,0.00,0,WeatherCatV1.20B467,2013-06-08 22:08:00,
2013-06-08 23:13:00,52.5,46.5,30.09,SE,142,0.0,2.0,80,0.00,,,0.00,0,WeatherCatV1.20B467,2013-06-08 22:13:00,
2013-06-08 23:18:00,52.3,46.3,30.09,SE,126,1.0,2.0,80,0.00,,,0.00,0,WeatherCatV1.20B467,2013-06-08 22:18:00,
2013-06-08 23:23:00,52.1,46.1,30.09,South,186,1.0,5.0,80,0.00,,,0.00,0,WeatherCatV1.20B467,2013-06-08 22:23:00,
2013-06-08 23:28:00,52.0,46.0,30.09,SE,131,4.0,5.0,80,0.00,,,0.00,0,WeatherCatV1.20B467,2013-06-08 22:28:00,
2013-06-08 23:33:00,52.0,46.0,30.09,SE,130,0.0,1.0,80,0.00,,,0.00,0,WeatherCatV1.20B467,2013-06-08 22:33:00,
2013-06-08 23:38:00,51.9,45.9,30.09,SE,131,3.0,3.0,80,0.00,,,0.00,0,WeatherCatV1.20B467,2013-06-08 22:38:00,
2013-06-08 23:43:00,51.8,45.8,30.08,NNW,340,0.0,2.0,80,0.00,,,0.00,0,WeatherCatV1.20B467,2013-06-08 22:43:00,
2013-06-08 23:48:00,51.7,46.1,30.08,South,169,1.0,1.0,81,0.00,,,0.00,0,WeatherCatV1.20B467,2013-06-08 22:48:00,
2013-06-08 23:53:00,51.7,46.1,30.08,SE,138,0.0,3.0,81,0.00,,,0.00,0,WeatherCatV1.20B467,2013-06-08 22:53:00,
2013-06-08 23:58:00,51.8,46.2,30.08,SE,130,2.0,8.0,81,0.00,,,0.00,0,WeatherCatV1.20B467,2013-06-08 22:58:00,